Regional Weather Roundup
Issued by NWS

Home | Current Version | Previous Version | Text Only | Print | Product List | Glossary Off
Versions: 1 2 3 4 5 6 7 8 9 10 11 12 13 14 15 16 17 18 19 20 21 22 23 24 25 26 27 28 29 30 31 32 33 34 35 36 37 38 39 40 41 42 43 44 45 46 47 48 49 50

069
ASUS44 KLIX 182001
RWRLA
LOUISIANA WEATHER ROUNDUP
NATIONAL WEATHER SERVICE NEW ORLEANS LA
200 PM CST THU DEC 18 2014

NOTE: "FAIR" INDICATES FEW OR NO CLOUDS BELOW 12,000 FEET WITH NO
      SIGNIFICANT WEATHER AND/OR OBSTRUCTIONS TO VISIBILITY.
      SKY/WX - SKY CONDITION AND SIGNIFICANT WEATHER.
      TMP - AIR TEMPERATURE.    DP   - DEWPOINT TEMPERATURE.
      RH  - RELATIVE HUMIDITY.  PRES - PRESSURE.
      HX  - HEAT INDEX.         WCI  - WIND CHILL INDEX.

*  THESE STATIONS ARE NOT NWS OR FAA STATIONS AND ARE NOT UNDER
   NWS QUALITY CONTROL.

LAZ040-048-061>063-065-066-069-182100-
SOUTHEAST LOUISIANA

CITY           SKY/WX    TMP DP  RH WIND       PRES   REMARKS
N.O. AUDUBON   NOT AVBL
N.O. INTL ARPT CLOUDY    68  54  60 S10       30.09F
N.O. LAKEFRONT CLOUDY    65  53  65 E10       30.10F
N.O. DOWNTOWN* CLOUDY    66  52  59 SE8       30.10F
SLIDELL        PTSUNNY   64  51  62 S9        30.10F
BATON ROUGE    CLOUDY    64  53  67 S6        30.09S
BOOTHVILLE     MOSUNNY   66  58  75 E9        30.11F
BELLE CHASSE   PTSUNNY   66  54  65 SE10      30.09F
BOGALUSA*        N/A     68  48  49 SW5       30.11S
GALLIANO*      NOT AVBL
NEW ROADS*     NOT AVBL
GONZALES*      NOT AVBL
HAMMOND*       NOT AVBL
HOUMA*         PTSUNNY   70  57  64 SE8       30.09F
PORT FOURCHON* CLEAR     66  59  77 E10       30.13S

$$

LAZ041-044-053-054-182100-
SOUTHWEST LOUISIANA

CITY           SKY/WX    TMP DP  RH WIND       PRES   REMARKS
LAKE CHARLES   CLOUDY    64  55  72 NE9       30.05F
LAFAYETTE      CLOUDY    66  56  70 N7        30.08F
PATTERSON      CLOUDY    66  57  72 S9        30.09F
SALT POINT       N/A     66  60  81 E3        30.08S
NEW IBERIA     LGT RAIN  68  60  75 SE9       30.08F
CHENAULT AIRPK CLOUDY    61  54  77 NE6       30.07F

$$

LAZ027-028-182100-
CENTRAL LOUISIANA

CITY           SKY/WX    TMP DP  RH WIND       PRES   REMARKS
FORT POLK      CLOUDY    55  52  92 NE3       30.08F
ALEXANDRIA INT CLOUDY    53  50  89 E5        30.10F
ALEXANDRIA     CLOUDY    52  48  86 E3        30.11F

$$

LAZ001-002-182100-
NORTHWEST LOUISIANA

CITY           SKY/WX    TMP DP  RH WIND       PRES   REMARKS
SHREVEPORT     CLOUDY    50  45  83 CALM      30.12F
BARKSDALE AFB  NOT AVBL
DTN SHREVEPORT CLOUDY    49  44  83 E3        30.13F

$$

LAZ014-016-182100-
NORTHEAST LOUISIANA

CITY           SKY/WX    TMP DP  RH WIND       PRES   REMARKS
MONROE         CLOUDY    53  45  74 CALM      30.15S
TALLULAH       CLOUDY    53  45  74 E7        30.14F

$$




USA.gov is the U.S. government's official web portal to all federal, state and local government web resources and services.